Manitowoc, WI

11:57 PM CST on February 25, 2017 (GMT -0600)
Manitowoc County

Weather History for KMTW - September, 2013

Change the Weather History Date:

Friday, September 6, 2013

  Actual Average Record
Temperature  
Mean Temperature 62 °F -  
Max Temperature 75 °F 75 °F 89 °F (1978)
Min Temperature 48 °F 55 °F 40 °F (1984)
Degree Days  
Heating Degree Days 4    
Growing Degree Days 12 (Base 50)    
Moisture  
Dew Point 56 °F    
Average Humidity 76    
Maximum Humidity 96    
Minimum Humidity 53    
Precipitation  
Precipitation 0.00 in - - ()
Sea Level Pressure  
Sea Level Pressure 30.18 in    
Wind  
Wind Speed 5 mph (SSW)    
Max Wind Speed 18 mph    
Max Gust Speed 24 mph    
Visibility 10 miles    
Events      
Averages and records for this station are not official NWS values.
T = Trace of Precipitation, MM = Missing Value Source: NWS Daily Summary

Daily Weather History Graph

Daily Weather History Graph

Search for Another Location

Airport or City:

Trip Planner

Search our weather history database for the weather conditions in past years. The results will help you decide how hot, cold, wet, or windy it might be!

Date:

Astronomy

Sep. 06, 2013 Rise Set
Actual Time 6:19 AM CDT 7:17 PM CDT
Civil Twilight 5:50 AM CDT 7:46 PM CDT
Nautical Twilight 5:15 AM CDT 8:21 PM CDT
Astronomical Twilight 4:38 AM CDT 8:58 PM CDT
Moon 7:36 AM CDT (9/6) 7:35 PM CDT (9/6)
Length of Visible Light 13h 56m
Length of Day
12h 57m
New Moon, 2% of the Moon is Illuminated
Sep 6
New Moon
Sep 12
First Quarter
Sep 19
Full
Sep 26
Last Quarter
Oct 4
New

Hourly Weather History & Observations

Time (CDT) Temp. Dew Point Humidity Pressure Visibility Wind Dir Wind Speed Gust Speed Precip Events Conditions
12:56 AM 48.0 °F 46.9 °F 96% 30.31 in 10.0 mi Calm Calm - N/A   Clear
1:56 AM 48.9 °F 46.0 °F 90% 30.30 in 10.0 mi Calm Calm - N/A   Clear
2:56 AM 48.0 °F 46.0 °F 93% 30.29 in 10.0 mi Calm Calm - N/A   Clear
3:56 AM 48.0 °F 46.0 °F 93% 30.28 in 10.0 mi Calm Calm - N/A   Clear
4:56 AM 50.0 °F 46.9 °F 89% 30.28 in 10.0 mi WSW 3.5 mph - N/A   Clear
5:56 AM 48.9 °F 46.9 °F 93% 30.28 in 10.0 mi Calm Calm - N/A   Clear
6:56 AM 52.0 °F 48.0 °F 86% 30.29 in 10.0 mi Calm Calm - N/A   Clear
7:56 AM 60.1 °F 55.0 °F 83% 30.28 in 10.0 mi SW 5.8 mph - N/A   Clear
8:56 AM 66.0 °F 55.0 °F 68% 30.26 in 10.0 mi SW 9.2 mph - N/A   Clear
9:56 AM 70.0 °F 53.1 °F 55% 30.24 in 10.0 mi SW 4.6 mph - N/A   Clear
10:56 AM 72.0 °F 55.0 °F 55% 30.23 in 10.0 mi South 5.8 mph - N/A   Clear
11:56 AM 73.0 °F 59.0 °F 61% 30.22 in 10.0 mi South 8.1 mph - N/A   Clear
12:56 PM 73.9 °F 57.0 °F 55% 30.18 in 10.0 mi SSE 11.5 mph - N/A   Clear
1:56 PM 75.0 °F 57.0 °F 53% 30.15 in 10.0 mi South 15.0 mph - N/A   Clear
2:56 PM 75.0 °F 57.9 °F 55% 30.14 in 10.0 mi South 13.8 mph - N/A   Clear
3:56 PM 73.9 °F 60.1 °F 62% 30.12 in 10.0 mi South 18.4 mph 24.2 mph N/A   Clear
4:56 PM 73.9 °F 63.0 °F 68% 30.09 in 10.0 mi South 15.0 mph - N/A   Clear
5:56 PM 72.0 °F 63.0 °F 73% 30.09 in 10.0 mi South 15.0 mph 23.0 mph N/A   Clear
6:56 PM 70.0 °F 64.0 °F 81% 30.07 in 10.0 mi South 13.8 mph - N/A   Clear
7:56 PM 70.0 °F 64.0 °F 81% 30.05 in 10.0 mi South 12.7 mph - N/A   Clear
8:56 PM 69.1 °F 64.0 °F 84% 30.04 in 10.0 mi South 8.1 mph - N/A   Clear
9:56 PM 69.1 °F 64.0 °F 84% 30.03 in 10.0 mi SSW 8.1 mph - N/A   Clear
10:56 PM 70.0 °F 64.0 °F 81% 30.01 in 10.0 mi SSW 8.1 mph - N/A   Mostly Cloudy
11:56 PM 71.1 °F 64.9 °F 81% 30.00 in 10.0 mi SSW 6.9 mph - N/A   Partly Cloudy